Location: Kershaw
(34.5481°N, 80.5823°W)
Time: 15:26:08
(UTC+00:00)

Transit 4A - Pass Details

Date: 05 October 2022
Orbit: 871 x 972 km, 66.8° (Epoch: 29 November)

Event Time Altitude Azimuth Distance (km) Brightness Sun altitude
Rises 03:42:49 0° 239° (WSW) 3,609 - -53.9°
Reaches altitude 10° 03:45:51 10° 253° (WSW) 2,651 - -54.2°
Maximum altitude 03:50:50 25° 307° (NW) 1,772 - -54.9°
Drops below altitude 10° 03:55:45 10° 1° (N) 2,603 - -55.5°
Sets 03:58:43 0° 15° (NNE) 3,530 - -55.8°
